map of PEN home
PEN - Airport
Location
City:  George Town, Penang (Pahang), Malaysia
Name:Penang International Airport
Old (Alt.):Bayan Lepas International Airport
ICAO:WMKP
IATA:PEN

Details
Type:Airport (Aerodrome, Airfield)
Use:Public/Civil, International (customs port of entry)
Latitude:517'50"N (5.297139)
Longitude:10016'37"E (100.276864)
Datum:WGS 1984
Elevation:11 ft (3 m)
Variation:0.27W (WMM2015v2 magnetic declination)
-0.01 annual change
Runways:1
Longest:10997 × 150 ft (3352 × 45.5 m), paved

Time
Time Zone:UTC+8
Local Time:

Weather
METAR:WMKP 041400Z VRB02KT 8000 FEW017CB BKN140 BKN270 28/25 Q1013 NOSIG
TAF:WMKP 041100Z 0412/0512 VRB03KT 9000 FEW025
TEMPO 0412/0414 6000 -RA FEW017CB
BECMG 0418/0420 03005KT
BECMG 0504/0506 23010KT FEW020

Related Locations
Nearby:
Farthest:SPAB: 12431 mi / 20006 km
Huancabamba, PIU, PE

Find:

   beyond  
but within

Other Information
Maps:
NOTAMs:
Links:
Sources:

  
  • flag of Malaysia
  • flag of Penang (Pahang)
  

Sectional Chart

Flight Planning
at skyvector.com

Satellite Image

Google Maps Satellite view

 

Copyright © 2004-2019 Karl L. Swartz. All rights reserved.
The Great Circle Mapper name and logo are trademarks of the Great Circle Mapper.
All other trademarks mentioned herein belong to their respective owners.
Please see credits for attibutions and further copyright information.

  Follow gcmap on Facebook Follow gcmap on Twitter GCmap on LinkedIn

hCard Microformat

Geo Microformat